[[[{"header":{"parameterUnit":"kt","parameterCategory":2,"dx":1,"dy":1,"la1":30.253999710083008,"la2":30.299108505249023,"lo1":-89.0895004272461,"lo2":-89.04439544677734,"nx":28,"ny":28,"refTime":"2022-09-27T15:00:00:Z","depth":0,"parameterNumber":1,"parameterNumberName":"U-component_of_WINDS"},"data":[-4.6342,-4.6541,-4.6534,-4.6757,-4.6788,-4.694,-4.6992,-4.7057,-4.7108,-4.7286,-4.7387,-4.74,-4.7447,-4.7565,-4.7674,-4.7677,-4.7726,-4.78,-4.7792,-4.7464,-4.7418,-4.7375,-4.733,-4.7809,-4.781,-4.8134,-4.8138,-4.814,-4.61,-4.6133,-4.6249,-4.6357,-4.6456,-4.6379,-4.6458,-4.6547,-4.6684,-4.6747,-4.6847,-4.7003,-4.7125,-4.7148,-4.7264,-4.7356,-4.7328,-4.7388,-4.7385,-4.7394,-4.7042,-4.6993,-4.7409,-4.7409,-4.7409,-4.7409,-4.7409,-4.7409,-4.5657,-4.5776,-4.5838,-4.5964,-4.6016,-4.6088,-4.62,-4.6213,-4.6326,-4.6448,-4.6417,-4.6572,-4.6634,-4.6771,-4.6815,-4.6935,-4.6868,-4.6932,-4.695,-4.6968,-4.699,-4.6528,-4.6954,-4.6952,-4.6951,-4.695,-4.6949,0,-4.5333,-4.5319,-4.543,-4.554,-4.563,-4.5714,-4.579,-4.5859,-4.5827,-4.5922,-4.6059,-4.6136,-4.6288,-4.6417,-4.6524,-4.6557,-4.6491,-4.6482,-4.6527,-4.6549,-4.6553,-4.6557,-4.5987,-4.6471,-4.6467,-4.6464,-4.6462,-4.646,-4.489,-4.5029,-4.509,-4.5169,-4.5209,-4.5337,-4.5411,-4.5373,-4.5454,-4.5541,-4.5648,-4.5774,-4.5875,-4.6094,-4.611,-4.6224,-4.6194,-4.638,-4.6211,-4.6223,-4.6203,-4.6197,-4.6212,-4.6416,-4.6422,-4.6426,-4.643,0,-4.4642,-4.4631,-4.4844,-4.4891,-4.4907,-4.5055,-4.5095,-4.5211,-4.5211,-4.5373,-4.5408,-4.541,-4.5545,-4.553,-4.568,-4.5669,-4.5912,-4.5877,-4.589,-4.5885,-4.6053,-4.6039,-4.6594,-4.6666,-4.6162,-4.6167,-4.6171,0,-4.4263,-4.4447,-4.442,-4.4545,-4.4747,-4.4704,-4.4906,-4.4926,-4.498,-4.5107,-4.5027,-4.5147,-4.5109,-4.5227,-4.521,-4.5405,-4.5432,-4.5437,-4.5432,-4.5448,-4.5449,-4.5496,-4.5475,-4.5408,-4.5405,-4.5402,-4.54,0,-4.3881,-4.4081,-4.4282,-4.4326,-4.4396,-4.4491,-4.4524,-4.4584,-4.4658,-4.4751,-4.4799,-4.4909,-4.4972,-4.5058,-4.5037,-4.4923,-4.5274,-4.5114,-4.5279,-4.5281,-4.5364,-4.536,-4.5849,-4.5397,-4.5396,-4.5395,-4.5394,0,-4.3576,-4.3671,-4.3963,-4.4019,-4.4074,-4.4206,-4.4313,-4.4422,-4.4491,-4.4489,-4.4562,-4.4509,-4.4677,-4.4519,-4.4749,-4.4608,-4.4674,-4.4692,-4.4704,-4.4724,-4.455,-4.4834,-4.5296,-4.5347,-4.4733,-4.4728,-4.4723,0,-4.3143,-4.3435,-4.3402,-4.368,-4.3814,-4.3717,-4.3862,-4.3926,-4.3936,-4.405,-4.4059,-4.419,-4.4069,-4.4109,-4.4224,-4.4241,-4.4424,-4.4215,-4.4385,-4.4391,-4.4375,-4.4798,-4.4874,-4.5195,-4.4652,-4.466,-4.4665,0,-4.2808,-4.2892,-4.2944,-4.2994,-4.3071,-4.3182,-4.3349,-4.3469,-4.3548,-4.3627,-4.3768,-4.3949,-4.3867,-4.3933,-4.3902,-4.4024,-4.4299,-4.3919,-4.3921,-4.3992,-4.4614,-4.4685,-4.4739,-4.4251,-4.426,-4.4267,-4.4609,0,-4.2357,-4.2501,-4.2639,-4.2752,-4.2834,-4.3007,-4.2993,-4.3082,-4.3044,-4.3051,-4.3255,-4.3305,-4.343,-4.3486,-4.3451,-4.3732,-4.3684,-4.3595,-4.3446,-4.3722,-4.3835,-4.388,-4.3278,-4.3274,-4.327,-4.3267,0,0,-4.1949,-4.2155,-4.2115,-4.2276,-4.2344,-4.2243,-4.243,-4.2484,-4.2598,-4.2648,-4.2562,-4.2829,-4.2875,-4.3125,-4.321,-4.3259,-4.3309,-4.3214,-4.3589,-4.3625,-4.3659,-4.3779,-4.3827,-4.326,-4.3259,-4.3257,-4.3256,0,-4.1783,-4.1828,-4.2013,-4.2067,-4.2146,-4.2144,-4.2188,-4.225,-4.2264,-4.2464,-4.238,-4.2501,-4.2716,-4.2776,-4.2834,-4.3181,-4.3114,-4.3219,-4.3412,-4.3551,-4.3592,-4.3629,-4.3756,-4.3801,-4.3247,-4.3248,-4.3248,0,-4.1454,-4.1498,-4.1585,-4.1734,-4.1786,-4.1925,-4.1763,-4.1917,-4.2021,-4.1906,-4.2107,-4.2134,-4.2212,-4.245,-4.2556,-4.2483,-4.2938,-4.2791,-4.2815,-4.2828,-4.2962,-4.3012,-4.3055,-4.2478,-4.2476,-4.2473,0,0,-4.1312,-4.1446,-4.1483,-4.1698,-4.1736,-4.1737,-4.1809,-4.178,-4.1853,-4.1883,-4.1917,-4.199,-4.2114,-4.2197,-4.2313,-4.2575,-4.259,-4.2697,-4.2733,-4.2763,-4.2793,-4.2935,-4.2983,-4.2463,-4.2463,-4.2463,0,0,-4.1246,-4.1298,-4.1247,-4.1494,-4.1565,-4.1618,-4.175,-4.1689,-4.1792,-4.1772,-4.1731,-4.1749,-4.1971,-4.2001,-4.187,-4.2261,-4.2112,-4.2143,-4.2234,-4.2279,-4.2315,-4.2306,-4.1715,0,0,0,0,0,-4.107,-4.129,-4.1244,-4.1283,-4.1473,-4.1643,-4.1667,-4.1638,-4.1533,-4.1638,-4.1657,-4.1579,-4.1922,-4.1805,-4.1845,-4.1994,-4.2336,-4.2358,-4.238,-4.2558,-4.2606,-4.2646,0,0,0,0,0,0,-4.1085,-4.1134,-4.1238,-4.1301,-4.1343,-4.1634,-4.1451,-4.1449,-4.1521,-4.1504,-4.1578,-4.1582,-4.1561,-4.1782,-4.1819,-4.1961,-4.1702,-4.2345,-4.2364,-4.2381,-4.2574,-4.2613,-4.2647,0,0,0,0,0,-4.1097,-4.1136,-4.1448,-4.1297,-4.1334,-4.1348,-4.1443,-4.144,-4.1495,-4.1526,-4.1527,-4.1467,-4.1566,-4.1595,-4.1804,-4.1945,-4.1677,-4.1691,-4.2357,-4.2372,-4.2386,-4.2594,0,0,0,0,0,0,-4.1106,-4.1135,-4.1454,-4.1465,-4.1212,-4.1331,-4.1349,-4.1432,-4.1512,-4.1515,-4.1412,-4.1397,-4.1572,-4.1593,-4.1616,-4.1941,-4.1656,-4.167,-4.1679,-4.2369,-4.2381,-4.2391,0,0,0,0,0,0,-4.1114,-4.1145,-4.146,-4.1354,-4.1352,-4.1316,-4.1332,-4.1505,-4.1514,-4.1393,-4.1383,-4.1404,-4.1538,-4.1593,-4.161,-4.1883,-4.164,-4.1653,-4.1663,-4.1669,-4.2378,-4.2388,0,0,0,0,0,0,-4.1126,-4.1152,-4.1351,-4.135,-4.1347,-4.1459,-4.1468,-4.1665,-4.1422,-4.1391,-4.14,-4.139,-4.1541,-4.1557,-4.1607,-4.1873,-4.188,-4.164,-4.165,-4.1656,-4.166,0,0,0,0,0,0,0,-4.1136,-4.0968,-4.1394,-4.1346,-4.1343,-4.1558,-4.1561,-4.1564,-4.142,-4.1411,-4.1402,-4.1394,-4.1563,-4.1578,-4.1593,-4.1865,0,0,-4.1639,-4.1646,0,0,0,0,0,0,0,0,-4.0956,-4.0965,-4.1395,-4.1397,-4.1399,-4.1559,-4.1561,-4.1563,-4.1419,-4.1411,-4.1404,-4.1397,-4.1567,-4.1579,-4.1591,0,0,0,0,0,0,0,0,0,0,0,0,0,0,0,-4.1395,-4.1397,0,-4.1559,-4.1561,-4.1563,-4.1418,-4.1412,-4.1406,-4.14,-4.1571,-4.158,-4.159,0,0,0,0,0,0,0,0,0,0,0,0,0,0,0,0,0,0,0,0,0,0,0,0,0,0,0,0,0,0,0,0,0,0,0,0,0,0,0,0,0,0,0,0,0,0,0,0,0,0,0,0,0,0,0,0,0,0,0,0,0,0,0,0,0,0,0,0,0]}],[{"header":{"parameterUnit":"kt","parameterCategory":2,"dx":1,"dy":1,"la1":30.253999710083008,"la2":30.299108505249023,"lo1":-89.0895004272461,"lo2":-89.04439544677734,"nx":28,"ny":28,"refTime":"2022-09-27T15:00:00:Z","depth":0,"parameterNumber":2,"parameterNumberName":"V-component_of_WINDS"},"data":[-16.8197,-16.8495,-16.8493,-16.8829,-16.8883,-16.911,-16.919,-16.9291,-16.9369,-16.9635,-16.9785,-16.9808,-16.988,-17.0053,-17.0212,-17.0216,-17.0283,-17.0391,-17.0378,-16.9906,-16.984,-16.9777,-16.9708,-17.0406,-17.0407,-17.0866,-17.087,-17.0874,-16.7848,-16.7907,-16.8086,-16.8256,-16.8407,-16.8302,-16.8426,-16.8558,-16.8762,-16.8861,-16.9009,-16.924,-16.942,-16.9455,-16.9625,-16.9757,-16.9715,-16.9803,-16.9792,-16.9804,-16.93,-16.9227,-16.9835,-16.9835,-16.9835,-16.9834,-16.9834,-16.9834,-16.7212,-16.7391,-16.7494,-16.7687,-16.7771,-16.7884,-16.8052,-16.8078,-16.8248,-16.8431,-16.839,-16.8619,-16.8712,-16.8914,-16.8978,-16.9152,-16.9051,-16.9145,-16.9168,-16.9192,-16.9219,-16.8554,-16.918,-16.9178,-16.9176,-16.9175,-16.9174,0,-16.6745,-16.6731,-16.6902,-16.7074,-16.7213,-16.7344,-16.7461,-16.7565,-16.7527,-16.7669,-16.7873,-16.7988,-16.8213,-16.84,-16.8557,-16.8604,-16.8503,-16.8493,-16.8556,-16.858,-16.858,-16.8581,-16.7758,-16.8474,-16.8468,-16.8463,-16.846,-16.8458,-16.6101,-16.6311,-16.6416,-16.6537,-16.6601,-16.6795,-16.6909,-16.6861,-16.6983,-16.7117,-16.7274,-16.7462,-16.761,-16.7931,-16.7952,-16.8119,-16.8071,-16.8344,-16.8095,-16.8108,-16.8072,-16.806,-16.8079,-16.8394,-16.8402,-16.8408,-16.8414,0,-16.5738,-16.5733,-16.6056,-16.6139,-16.6165,-16.6386,-16.6453,-16.6627,-16.6632,-16.6871,-16.6923,-16.693,-16.7127,-16.7105,-16.7324,-16.7305,-16.7659,-16.7608,-16.7625,-16.7614,-16.7855,-16.7832,-16.8646,-16.8749,-16.8027,-16.8033,-16.8039,0,-16.5185,-16.5462,-16.5437,-16.5626,-16.593,-16.5875,-16.6176,-16.621,-16.6293,-16.6481,-16.6366,-16.6543,-16.6486,-16.6659,-16.6632,-16.6916,-16.6958,-16.6959,-16.6949,-16.697,-16.697,-16.703,-16.6996,-16.6918,-16.6914,-16.691,-16.6907,0,-16.4617,-16.4928,-16.5234,-16.5304,-16.5418,-16.5562,-16.5615,-16.5706,-16.5818,-16.5957,-16.6027,-16.6193,-16.6283,-16.641,-16.6375,-16.6206,-16.6722,-16.6483,-16.6723,-16.6725,-16.6838,-16.6831,-16.756,-16.6902,-16.6901,-16.6899,-16.6898,0,-16.4168,-16.4318,-16.4763,-16.4854,-16.4938,-16.5138,-16.53,-16.5466,-16.5571,-16.5568,-16.5677,-16.5596,-16.5845,-16.5609,-16.5949,-16.5739,-16.5833,-16.5858,-16.5874,-16.5894,-16.563,-16.6042,-16.6739,-16.681,-16.5913,-16.5904,-16.5897,0,-16.3518,-16.3967,-16.3924,-16.4347,-16.455,-16.4408,-16.4629,-16.4726,-16.4741,-16.4911,-16.4924,-16.5119,-16.4938,-16.4995,-16.5167,-16.5187,-16.546,-16.515,-16.5388,-16.5398,-16.5365,-16.6007,-16.6116,-16.6589,-16.5792,-16.5803,-16.5811,0,-16.3013,-16.3153,-16.3233,-16.3308,-16.3433,-16.3602,-16.3856,-16.4039,-16.4155,-16.4277,-16.4485,-16.4758,-16.4632,-16.4728,-16.468,-16.486,-16.5273,-16.4699,-16.47,-16.4802,-16.5737,-16.584,-16.592,-16.5199,-16.5212,-16.5222,-16.5727,0,-16.2334,-16.2558,-16.2771,-16.2946,-16.3074,-16.3338,-16.3319,-16.3454,-16.3396,-16.3405,-16.3712,-16.3785,-16.3967,-16.4052,-16.3996,-16.4418,-16.4343,-16.4206,-16.3973,-16.4395,-16.456,-16.4628,-16.3728,-16.3721,-16.3715,-16.371,0,0,-16.1711,-16.2032,-16.1978,-16.2225,-16.233,-16.2179,-16.2462,-16.2545,-16.2717,-16.279,-16.2661,-16.3057,-16.3122,-16.3496,-16.3626,-16.37,-16.3772,-16.3626,-16.4195,-16.4249,-16.4299,-16.4477,-16.4548,-16.37,-16.3698,-16.3696,-16.3694,0,-16.1459,-16.1538,-16.1822,-16.1906,-16.203,-16.2027,-16.2095,-16.219,-16.2208,-16.2511,-16.2378,-16.2559,-16.2879,-16.2964,-16.3049,-16.3581,-16.3469,-16.3638,-16.3932,-16.4136,-16.4198,-16.4253,-16.444,-16.4509,-16.3679,-16.368,-16.3681,0,-16.0957,-16.103,-16.1165,-16.1399,-16.1478,-16.1691,-16.1443,-16.1679,-16.1835,-16.1653,-16.1955,-16.1993,-16.2105,-16.2463,-16.2622,-16.2508,-16.3194,-16.2974,-16.3011,-16.3027,-16.3224,-16.3298,-16.3365,-16.2489,-16.2485,-16.2481,0,0,-16.0741,-16.0951,-16.1012,-16.1344,-16.1403,-16.1403,-16.1514,-16.1468,-16.1576,-16.1619,-16.1665,-16.1771,-16.1954,-16.2077,-16.2248,-16.2645,-16.2662,-16.2828,-16.2885,-16.2931,-16.2972,-16.3181,-16.3255,-16.2466,-16.2466,-16.2465,0,0,-16.0637,-16.0723,-16.0646,-16.103,-16.1139,-16.1218,-16.142,-16.1326,-16.148,-16.1447,-16.1376,-16.1401,-16.1735,-16.1777,-16.1575,-16.2164,-16.1934,-16.1981,-16.2125,-16.2195,-16.2251,-16.2233,-16.1328,0,0,0,0,0,-16.037,-16.0712,-16.0642,-16.0704,-16.0997,-16.1258,-16.1294,-16.1246,-16.1084,-16.1245,-16.1267,-16.1141,-16.1653,-16.1473,-16.1532,-16.1757,-16.2269,-16.2304,-16.2337,-16.2615,-16.2689,-16.2752,0,0,0,0,0,0,-16.0394,-16.047,-16.0632,-16.0728,-16.0793,-16.1245,-16.096,-16.0956,-16.1066,-16.1037,-16.1141,-16.1144,-16.1105,-16.1439,-16.1493,-16.1708,-16.1309,-16.2283,-16.2313,-16.2339,-16.2641,-16.2701,-16.2753,0,0,0,0,0,-16.0413,-16.0473,-16.0958,-16.0722,-16.0779,-16.0797,-16.0946,-16.0941,-16.1024,-16.1062,-16.1061,-16.0979,-16.1113,-16.1155,-16.1471,-16.1684,-16.1271,-16.1292,-16.2302,-16.2326,-16.2347,-16.267,0,0,0,0,0,0,-16.0426,-16.0469,-16.0968,-16.0984,-16.059,-16.077,-16.0797,-16.0929,-16.104,-16.1044,-16.0894,-16.0871,-16.1123,-16.1153,-16.1187,-16.1679,-16.124,-16.1261,-16.1274,-16.232,-16.2338,-16.2355,0,0,0,0,0,0,-16.0435,-16.0483,-16.0976,-16.0813,-16.0809,-16.0746,-16.0771,-16.1031,-16.1043,-16.0865,-16.0849,-16.0882,-16.107,-16.1154,-16.1179,-16.1588,-16.1216,-16.1236,-16.125,-16.1259,-16.2335,-16.2349,0,0,0,0,0,0,-16.0454,-16.0495,-16.0808,-16.0806,-16.0801,-16.0969,-16.0974,-16.1277,-16.0908,-16.0863,-16.0873,-16.0857,-16.1075,-16.1099,-16.1175,-16.1574,-16.1584,-16.1217,-16.123,-16.124,-16.1246,0,0,0,0,0,0,0,-16.047,-16.021,-16.0879,-16.08,-16.0795,-16.1125,-16.1129,-16.1133,-16.0904,-16.089,-16.0876,-16.0864,-16.1102,-16.1124,-16.1146,-16.1563,0,0,-16.1215,-16.1224,0,0,0,0,0,0,0,0,-16.0192,-16.0206,-16.0879,-16.0882,-16.0886,-16.1126,-16.1129,-16.1133,-16.0902,-16.0891,-16.0879,-16.0869,-16.1108,-16.1125,-16.1143,0,0,0,0,0,0,0,0,0,0,0,0,0,0,0,-16.0879,-16.0882,0,-16.1126,-16.1129,-16.1132,-16.09,-16.0891,-16.0882,-16.0873,-16.1113,-16.1127,-16.1142,0,0,0,0,0,0,0,0,0,0,0,0,0,0,0,0,0,0,0,0,0,0,0,0,0,0,0,0,0,0,0,0,0,0,0,0,0,0,0,0,0,0,0,0,0,0,0,0,0,0,0,0,0,0,0,0,0,0,0,0,0,0,0,0,0,0,0,0,0]}]]]